Hurghada, Egypt

4:12 PM EET on January 17, 2018 (GMT +0200)
Hurghada

Weather History for HEGN - March, 2013

Change the Weather History Date:

Friday, March 15, 2013

  Actual Average Record
Temperature  
Mean Temperature 77 °F -  
Max Temperature 91 °F 78 °F 91 °F (2013)
Min Temperature 63 °F 61 °F 50 °F (2005)
Cooling Degree Days 12    
Growing Degree Days 27 (Base 50)    
Moisture  
Dew Point 67 °F    
Average Humidity 70    
Maximum Humidity 94    
Minimum Humidity 43    
Precipitation  
Precipitation 0.00 in - - ()
Sea Level Pressure  
Sea Level Pressure 29.79 in    
Wind  
Wind Speed 5 mph ()    
Max Wind Speed 12 mph    
Max Gust Speed -    
Visibility 4.5 miles    
Events      
Averages and records for this station are not official NWS values.
T = Trace of Precipitation, MM = Missing Value Source: Averaged Metar Reports

Daily Weather History Graph

Daily Weather History Graph

Search for Another Location

Airport or City:

Trip Planner

Search our weather history database for the weather conditions in past years. The results will help you decide how hot, cold, wet, or windy it might be!

Date:

Astronomy

Mar. 15, 2013 Rise Set
Actual Time 5:54 AM EET 5:53 PM EET
Civil Twilight 5:31 AM EET 6:17 PM EET
Nautical Twilight 5:04 AM EET 6:44 PM EET
Astronomical Twilight 4:37 AM EET 7:11 PM EET
Moon 7:54 AM EET (3/15) 9:23 PM EET (3/15)
Length of Visible Light 12h 45m
Length of Day
11h 59m
Waxing Crescent, 13% of the Moon is Illuminated
Mar 15
Waxing Crescent
Mar 19
First Quarter
Mar 27
Full
Apr 3
Last Quarter
Apr 10
New

Hourly Weather History & Observations

Time (EET) Temp. Heat Index Dew Point Humidity Pressure Visibility Wind Dir Wind Speed Gust Speed Precip Events Conditions
12:00 AM 75.2 °F - 66.2 °F 73% 29.80 in - SE 6.9 mph - N/A   Clear
1:00 AM 73.4 °F - 66.2 °F 78% 29.80 in - SSE 6.9 mph - N/A   Clear
2:00 AM 73 °F - 67 °F 75% 29.81 in 6 mi SSE 4.6 mph - -  
2:00 AM 73.4 °F - 66.2 °F 78% 29.80 in - SSE 4.6 mph - N/A   Clear
3:00 AM 69.8 °F - 64.4 °F 83% 29.80 in - SW 4.6 mph - N/A   Clear
4:01 AM 68.0 °F - 64.4 °F 88% 29.77 in - Calm Calm - N/A   Clear
5:00 AM 66.2 °F - 64.4 °F 94% 29.77 in - Calm Calm - N/A   Clear
6:00 AM 62.6 °F - 55.4 °F 77% 29.80 in - Calm Calm - N/A   Clear
7:00 AM 66.2 °F - 53.6 °F 64% 29.83 in - Calm Calm - N/A   Clear
8:00 AM 77 °F - 60 °F 45% 29.83 in 6 mi Calm Calm - -  
8:00 AM 77.0 °F - 59.0 °F 54% 29.83 in - Calm Calm - N/A   Clear
9:00 AM 84.2 °F 85.0 °F 62.6 °F 48% 29.83 in - ESE 5.8 mph - N/A   Clear
10:00 AM 86.0 °F 88.2 °F 66.2 °F 51% 29.83 in - SE 8.1 mph - N/A   Clear
11:00 AM 87.8 °F 88.5 °F 62.6 °F 43% 29.83 in - SSE 9.2 mph - N/A   Clear
12:00 PM 89.6 °F 92.2 °F 66.2 °F 46% 29.80 in - ESE 11.5 mph - N/A   Clear
1:00 PM 91.4 °F 95.4 °F 68.0 °F 46% 29.77 in - SE 11.5 mph - N/A   Clear
2:00 PM 89 °F - 71 °F 46% 29.77 in 6 mi ESE 11.5 mph - -  
2:00 PM 87.8 °F 93.8 °F 71.6 °F 58% 29.77 in - ESE 11.5 mph - N/A   Clear
3:00 PM 86.0 °F 91.8 °F 71.6 °F 62% 29.77 in - ESE 11.5 mph - N/A   Clear
4:00 PM 86.0 °F 93.4 °F 73.4 °F 66% 29.74 in - SE 9.2 mph - N/A   Clear
5:00 PM 82.4 °F 87.2 °F 71.6 °F 70% 29.74 in - SE 6.9 mph - N/A   Clear
6:00 PM 78.8 °F - 71.6 °F 78% 29.74 in - SE 6.9 mph - N/A   Clear
7:00 PM 77.0 °F - 71.6 °F 83% 29.77 in 3.7 mi ESE 6.9 mph - N/A   Unknown
8:00 PM 77 °F - 73 °F 83% 29.78 in 4 mi SE 6.9 mph - -   Mist
8:00 PM 77.0 °F - 73.4 °F 89% 29.77 in 3.7 mi SE 6.9 mph - N/A   Unknown
9:00 PM 77.0 °F - 73.4 °F 89% 29.80 in 3.7 mi ESE 4.6 mph - N/A   Scattered Clouds
10:00 PM 75.2 °F - 73.4 °F 94% 29.80 in 3.7 mi ESE 4.6 mph - N/A   Scattered Clouds
11:00 PM 77.0 °F - 73.4 °F 89% 29.80 in 3.7 mi ESE 3.5 mph - N/A   Scattered Clouds